• In Hungary
  • List of Countries
  • For 7 days
  • Water Temperature
  • Satellite Maps
  • Weather Map
  • News
  • Weather Widgets
  • user-avatar
    Login

    Hourly Weather Evergem

    Today, 25 September, Tuesday

    Time Temperature Precipitation Wind Pressure Humidity
    00:00 +9°C° 0 mm 1 mps 778 mmHg 76%
    01:00 +9°C° 0 mm 1 mps 778 mmHg 77%
    02:00 +9°C° 0 mm 1 mps 778 mmHg 78%
    03:00 +8°C° 0 mm 1 mps 777 mmHg 79%
    04:00 +8°C° 0 mm 1 mps 778 mmHg 80%
    05:00 +8°C° 0 mm 1 mps 778 mmHg 80%
    06:00 +8°C° 0 mm 1 mps 778 mmHg 81%
    07:00 +10°C° 0 mm 1 mps 778 mmHg 75%
    08:00 +12°C° 0 mm 1 mps 778 mmHg 69%
    09:00 +14°C° 0 mm 1 mps 778 mmHg 63%
    10:00 +15°C° 0 mm 1 mps 778 mmHg 59%
    11:00 +16°C° 0 mm 1 mps 778 mmHg 55%
    12:00 +16°C° 0 mm 1 mps 778 mmHg 50%
    13:00 +18°C° 0 mm 1 mps 777 mmHg 50%
    14:00 +18°C° 0 mm 1 mps 777 mmHg 49%
    15:00 +18°C° 0 mm 1 mps 777 mmHg 48%
    16:00 +16°C° 0 mm 1 mps 776 mmHg 53%
    17:00 +14°C° 0 mm 1 mps 776 mmHg 57%
    18:00 +13°C° 0 mm 1 mps 776 mmHg 62%
    19:00 +12°C° 0 mm 1 mps 776 mmHg 64%
    20:00 +10°C° 0 mm 2 mps 776 mmHg 66%
    21:00 +10°C° 0 mm 2 mps 776 mmHg 68%
    22:00 +10°C° 0 mm 2 mps 776 mmHg 69%
    23:00 +9°C° 0 mm 2 mps 776 mmHg 71%

    Tomorrow, 26 September, Wednesday

    Time Temperature Precipitation Wind Pressure Humidity
    00:00 +9°C° 0 mm 2 mps 776 mmHg 72%
    01:00 +8°C° 0 mm 2 mps 776 mmHg 72%
    02:00 +8°C° 0 mm 2 mps 776 mmHg 72%
    03:00 +8°C° 0 mm 2 mps 775 mmHg 72%
    04:00 +8°C° 0 mm 2 mps 775 mmHg 71%
    05:00 +7°C° 0 mm 2 mps 775 mmHg 70%
    06:00 +7°C° 0 mm 2 mps 775 mmHg 69%
    07:00 +9°C° 0 mm 2 mps 775 mmHg 63%
    08:00 +12°C° 0 mm 2 mps 775 mmHg 56%
    09:00 +14°C° 0 mm 2 mps 775 mmHg 50%
    10:00 +16°C° 0 mm 2 mps 775 mmHg 46%
    11:00 +17°C° 0 mm 2 mps 774 mmHg 42%
    12:00 +19°C° 0 mm 2 mps 774 mmHg 38%
    13:00 +19°C° 0 mm 2 mps 774 mmHg 37%
    14:00 +20°C° 0 mm 1 mps 774 mmHg 37%
    15:00 +21°C° 0 mm 1 mps 773 mmHg 37%
    16:00 +19°C° 0 mm 1 mps 773 mmHg 41%
    17:00 +16°C° 0 mm 1 mps 773 mmHg 46%
    18:00 +14°C° 0 mm 1 mps 773 mmHg 50%
    19:00 +14°C° 0 mm 1 mps 773 mmHg 51%
    20:00 +14°C° 0 mm 1 mps 773 mmHg 52%
    21:00 +13°C° 0 mm 1 mps 773 mmHg 53%
    22:00 +13°C° 0 mm 1 mps 773 mmHg 54%
    23:00 +12°C° 0 mm 1 mps 773 mmHg 56%

    Day after tomorrow, 27 September, Thursday

    Time Temperature Precipitation Wind Pressure Humidity
    00:00 +12°C° 0 mm 2 mps 773 mmHg 57%
    01:00 +12°C° 0 mm 2 mps 773 mmHg 58%
    02:00 +10°C° 0 mm 2 mps 773 mmHg 60%
    03:00 +11°C° 0 mm 1 mps 773 mmHg 61%
    04:00 +10°C° 0 mm 2 mps 772 mmHg 62%
    05:00 +10°C° 0 mm 2 mps 772 mmHg 64%
    06:00 +9°C° 0 mm 2 mps 772 mmHg 65%
    07:00 +12°C° 0 mm 2 mps 772 mmHg 61%
    08:00 +14°C° 0 mm 2 mps 772 mmHg 57%
    09:00 +16°C° 0 mm 3 mps 772 mmHg 53%
    10:00 +18°C° 0 mm 3 mps 771 mmHg 49%
    11:00 +19°C° 0 mm 3 mps 771 mmHg 45%
    12:00 +21°C° 0 mm 3 mps 770 mmHg 42%
    13:00 +21°C° 0 mm 3 mps 770 mmHg 42%
    14:00 +22°C° 0 mm 3 mps 769 mmHg 43%
    15:00 +22°C° 0 mm 3 mps 768 mmHg 44%
    16:00 +20°C° 0 mm 2 mps 768 mmHg 49%
    17:00 +18°C° 0 mm 2 mps 768 mmHg 54%
    18:00 +17°C° 0 mm 2 mps 768 mmHg 60%
    19:00 +16°C° 0 mm 2 mps 768 mmHg 62%
    20:00 +16°C° 0 mm 2 mps 768 mmHg 65%
    21:00 +15°C° 0 mm 2 mps 768 mmHg 67%
    22:00 +15°C° 0 mm 2 mps 767 mmHg 70%
    23:00 +15°C° 0 mm 2 mps 767 mmHg 74%

    28 September, Friday

    Time Temperature Precipitation Wind Pressure Humidity
    00:00 +15°C° 0 mm 2 mps 767 mmHg 77%
    01:00 +14°C° 0 mm 2 mps 767 mmHg 79%
    02:00 +14°C° 0 mm 2 mps 767 mmHg 82%
    03:00 +14°C° 0 mm 2 mps 767 mmHg 85%
    04:00 +14°C° 0 mm 2 mps 767 mmHg 86%
    05:00 +14°C° 0 mm 2 mps 767 mmHg 86%
    06:00 +14°C° 0 mm 2 mps 767 mmHg 87%
    07:00 +14°C° 0 mm 3 mps 768 mmHg 81%
    08:00 +17°C° 0 mm 3 mps 768 mmHg 75%
    09:00 +18°C° 0 mm 4 mps 768 mmHg 69%
    10:00 +19°C° 0 mm 4 mps 768 mmHg 66%
    11:00 +19°C° 0 mm 4 mps 768 mmHg 63%
    12:00 +20°C° 0 mm 4 mps 769 mmHg 60%
    13:00 +20°C° 0 mm 5 mps 768 mmHg 61%
    14:00 +19°C° 0 mm 5 mps 768 mmHg 62%
    15:00 +19°C° 0 mm 6 mps 768 mmHg 63%
    16:00 +17°C° 0 mm 6 mps 769 mmHg 66%
    17:00 +15°C° 0 mm 6 mps 769 mmHg 68%
    18:00 +14°C° 0 mm 6 mps 770 mmHg 71%
    19:00 +13°C° 0 mm 6 mps 770 mmHg 70%
    20:00 +11°C° 0 mm 6 mps 771 mmHg 69%
    21:00 +11°C° 0 mm 6 mps 771 mmHg 68%
    22:00 +10°C° 0 mm 5 mps 771 mmHg 69%
    23:00 +9°C° 0 mm 5 mps 771 mmHg 70%

    29 September, Saturday

    Time Temperature Precipitation Wind Pressure Humidity
    00:00 +8°C° 0 mm 5 mps 771 mmHg 71%
    01:00 +8°C° 0 mm 5 mps 771 mmHg 73%
    02:00 +7°C° 0 mm 4 mps 771 mmHg 75%
    03:00 +7°C° 0 mm 4 mps 771 mmHg 77%
    04:00 +7°C° 0 mm 4 mps 771 mmHg 80%
    05:00 +6°C° 0 mm 4 mps 771 mmHg 82%
    06:00 +6°C° 0 mm 4 mps 771 mmHg 85%
    07:00 +7°C° 0 mm 4 mps 771 mmHg 78%
    08:00 +10°C° 0 mm 4 mps 771 mmHg 71%
    09:00 +12°C° 0 mm 5 mps 771 mmHg 64%
    10:00 +13°C° 0 mm 5 mps 771 mmHg 60%
    11:00 +14°C° 0 mm 5 mps 771 mmHg 55%
    12:00 +15°C° 0 mm 4 mps 770 mmHg 51%
    13:00 +15°C° 0 mm 5 mps 770 mmHg 50%
    14:00 +15°C° 0 mm 5 mps 769 mmHg 50%
    15:00 +15°C° 0 mm 5 mps 769 mmHg 49%
    16:00 +14°C° 0 mm 4 mps 769 mmHg 54%
    17:00 +13°C° 0 mm 4 mps 769 mmHg 58%
    18:00 +11°C° 0 mm 3 mps 769 mmHg 62%
    19:00 +11°C° 0 mm 3 mps 769 mmHg 64%
    20:00 +10°C° 0 mm 3 mps 769 mmHg 66%
    21:00 +9°C° 0 mm 3 mps 769 mmHg 68%
    22:00 +9°C° 0 mm 3 mps 769 mmHg 70%
    23:00 +8°C° 0 mm 2 mps 769 mmHg 72%

    30 September, Sunday

    Time Temperature Precipitation Wind Pressure Humidity
    00:00 +8°C° 0 mm 2 mps 768 mmHg 73%
    01:00 +8°C° 0 mm 2 mps 768 mmHg 75%
    02:00 +7°C° 0 mm 2 mps 768 mmHg 76%
    03:00 +8°C° 0 mm 1 mps 768 mmHg 77%
    04:00 +8°C° 0 mm 1 mps 768 mmHg 78%
    05:00 +7°C° 0 mm 1 mps 768 mmHg 80%
    06:00 +7°C° 0 mm 1 mps 768 mmHg 81%
    07:00 +9°C° 0 mm 1 mps 768 mmHg 73%
    08:00 +11°C° 0 mm 1 mps 768 mmHg 66%
    09:00 +14°C° 0 mm 1 mps 768 mmHg 59%
    10:00 +15°C° 0 mm 2 mps 768 mmHg 56%
    11:00 +16°C° 0 mm 2 mps 768 mmHg 53%
    12:00 +17°C° 0 mm 3 mps 768 mmHg 50%
    13:00 +17°C° 0 mm 3 mps 768 mmHg 52%
    14:00 +17°C° 0 mm 4 mps 768 mmHg 53%
    15:00 +17°C° 0 mm 4 mps 768 mmHg 55%
    16:00 +14°C° 0 mm 4 mps 769 mmHg 60%
    17:00 +13°C° 0 mm 4 mps 769 mmHg 66%
    18:00 +11°C° 0 mm 3 mps 770 mmHg 72%
    19:00 +11°C° 0 mm 3 mps 770 mmHg 74%
    20:00 +10°C° 0 mm 3 mps 770 mmHg 75%
    21:00 +10°C° 0 mm 2 mps 771 mmHg 77%
    22:00 +10°C° 0 mm 2 mps 771 mmHg 77%
    23:00 +10°C° 0 mm 2 mps 771 mmHg 76%
    Show more